Time,TemperatureF,DewpointF,PressureIn,WindDirection,WindDirectionDegrees,WindSpeedMPH,WindSpeedGustMPH,Humidity,HourlyPrecipIn,Conditions,Clouds,dailyrainin,SoftwareType,DateUTC
2013-10-06 00:01:00,65.8,62.5,30.00,NE,54,0.0,0.0,89,0.00,RA,,0.00,WeatherDisplay:10.37,2013-10-06 04:01:00,
2013-10-06 00:07:00,65.8,62.5,29.99,NE,54,0.0,0.0,89,0.00,RA,,0.00,WeatherDisplay:10.37,2013-10-06 04:07:00,
2013-10-06 00:12:00,65.6,62.3,29.99,NE,54,0.0,0.0,89,0.00,CLR,,0.00,WeatherDisplay:10.37,2013-10-06 04:12:00,
2013-10-06 00:17:00,65.6,62.3,29.99,NE,54,0.0,0.0,89,0.00,CLR,,0.00,WeatherDisplay:10.37,2013-10-06 04:17:00,
2013-10-06 00:22:00,65.6,62.6,29.99,ENE,78,0.0,0.0,90,0.00,CLR,,0.00,WeatherDisplay:10.37,2013-10-06 04:22:00,
2013-10-06 00:27:00,65.5,62.5,30.00,ENE,78,0.0,0.0,90,0.00,CLR,,0.00,WeatherDisplay:10.37,2013-10-06 04:27:00,
2013-10-06 00:32:00,65.5,62.5,29.99,SSE,147,3.1,4.6,90,0.00,CLR,,0.00,WeatherDisplay:10.37,2013-10-06 04:32:00,
2013-10-06 00:37:00,65.3,62.3,29.99,ESE,114,0.6,4.6,90,0.00,CLR,,0.00,WeatherDisplay:10.37,2013-10-06 04:37:00,
2013-10-06 00:42:00,65.2,62.2,29.99,SE,138,0.0,1.2,90,0.00,CLR,,0.00,WeatherDisplay:10.37,2013-10-06 04:42:00,
2013-10-06 00:47:00,65.0,62.3,29.99,SE,137,0.0,0.0,91,0.00,CLR,,0.00,WeatherDisplay:10.37,2013-10-06 04:47:00,
2013-10-06 00:52:00,64.8,62.1,29.99,ESE,104,0.1,3.5,91,0.00,CLR,,0.00,WeatherDisplay:10.37,2013-10-06 04:52:00,
2013-10-06 00:57:00,64.8,62.1,29.99,SE,137,0.0,0.0,91,0.00,CLR,,0.00,WeatherDisplay:10.37,2013-10-06 04:57:00,
2013-10-06 01:02:00,64.7,62.3,29.99,ESE,112,1.7,3.5,92,0.00,CLR,,0.00,WeatherDisplay:10.37,2013-10-06 05:02:00,
2013-10-06 01:07:00,64.7,62.3,29.98,ESE,119,1.7,3.5,92,0.00,CLR,,0.00,WeatherDisplay:10.37,2013-10-06 05:07:00,
2013-10-06 01:12:00,64.5,62.1,29.98,ESE,117,0.0,0.0,92,0.00,CLR,,0.00,WeatherDisplay:10.37,2013-10-06 05:12:00,
2013-10-06 01:17:00,64.5,62.1,29.99,ESE,119,0.0,0.0,92,0.00,CLR,,0.00,WeatherDisplay:10.37,2013-10-06 05:17:00,
2013-10-06 01:22:00,64.5,62.1,29.98,South,169,0.0,5.0,92,0.00,CLR,,0.00,WeatherDisplay:10.37,2013-10-06 05:22:00,
2013-10-06 01:27:00,64.5,62.1,29.99,South,169,0.0,0.0,92,0.00,CLR,,0.00,WeatherDisplay:10.37,2013-10-06 05:27:00,
2013-10-06 01:32:00,64.5,62.1,29.99,East,88,2.0,3.5,92,0.00,CLR,,0.00,WeatherDisplay:10.37,2013-10-06 05:32:00,
2013-10-06 01:37:00,64.3,61.9,29.99,East,88,0.0,0.0,92,0.00,CLR,,0.00,WeatherDisplay:10.37,2013-10-06 05:37:00,
2013-10-06 01:42:00,64.3,61.9,29.99,East,89,0.0,0.0,92,0.00,CLR,,0.00,WeatherDisplay:10.37,2013-10-06 05:42:00,
2013-10-06 01:47:00,64.2,61.8,29.99,East,89,0.0,0.0,92,0.00,CLR,,0.00,WeatherDisplay:10.37,2013-10-06 05:47:00,
2013-10-06 01:52:00,64.2,61.8,29.99,SE,137,2.8,5.8,92,0.00,CLR,,0.00,WeatherDisplay:10.37,2013-10-06 05:52:00,
2013-10-06 01:57:00,64.2,62.1,29.99,SE,138,0.0,0.0,93,0.00,CLR,,0.00,WeatherDisplay:10.37,2013-10-06 05:57:00,
2013-10-06 02:02:00,64.0,61.9,29.99,SE,138,0.0,0.0,93,0.00,CLR,,0.00,WeatherDisplay:10.37,2013-10-06 06:02:00,
2013-10-06 02:07:00,64.0,61.9,29.98,SE,138,0.0,0.0,93,0.00,CLR,,0.00,WeatherDisplay:10.37,2013-10-06 06:07:00,
2013-10-06 02:12:00,64.0,61.9,29.99,SE,138,0.0,0.0,93,0.00,CLR,,0.00,WeatherDisplay:10.37,2013-10-06 06:12:00,
2013-10-06 02:17:00,64.0,61.9,29.99,SE,138,0.0,0.0,93,0.00,CLR,,0.00,WeatherDisplay:10.37,2013-10-06 06:17:00,
2013-10-06 02:22:00,64.0,61.9,29.98,SE,138,0.0,0.0,93,0.00,CLR,,0.00,WeatherDisplay:10.37,2013-10-06 06:22:00,
2013-10-06 02:27:00,64.0,61.9,29.98,SE,138,0.0,0.0,93,0.00,CLR,,0.00,WeatherDisplay:10.37,2013-10-06 06:27:00,
2013-10-06 02:32:00,63.9,61.8,29.98,SE,138,0.0,0.0,93,0.00,CLR,,0.00,WeatherDisplay:10.37,2013-10-06 06:32:00,
2013-10-06 02:37:00,63.9,61.8,29.98,SE,140,0.0,0.0,93,0.00,CLR,,0.00,WeatherDisplay:10.37,2013-10-06 06:37:00,
2013-10-06 02:42:00,63.9,62.1,29.98,SE,138,0.0,0.0,94,0.00,CLR,,0.00,WeatherDisplay:10.37,2013-10-06 06:42:00,
2013-10-06 02:47:00,63.9,62.1,29.97,SE,138,0.0,0.0,94,0.00,CLR,,0.00,WeatherDisplay:10.37,2013-10-06 06:47:00,
2013-10-06 02:52:00,63.7,61.9,29.97,SE,138,0.0,0.0,94,0.00,CLR,,0.00,WeatherDisplay:10.37,2013-10-06 06:52:00,
2013-10-06 02:57:00,63.7,61.9,29.97,SE,134,0.0,0.0,94,0.00,CLR,,0.00,WeatherDisplay:10.37,2013-10-06 06:57:00,
2013-10-06 03:02:00,63.7,61.9,29.97,SE,136,0.0,0.0,94,0.00,CLR,,0.00,WeatherDisplay:10.37,2013-10-06 07:02:00,
2013-10-06 03:07:00,63.7,61.9,29.97,SE,136,0.0,0.0,94,0.00,CLR,,0.00,WeatherDisplay:10.37,2013-10-06 07:07:00,
2013-10-06 03:12:00,63.7,61.9,29.97,SE,140,0.0,0.0,94,0.00,CLR,,0.00,WeatherDisplay:10.37,2013-10-06 07:12:00,
2013-10-06 03:17:00,63.7,61.9,29.96,SE,140,0.0,0.0,94,0.00,CLR,,0.00,WeatherDisplay:10.37,2013-10-06 07:17:00,
2013-10-06 03:23:00,63.7,61.9,29.96,East,80,0.0,0.0,94,0.00,CLR,,0.00,WeatherDisplay:10.37,2013-10-06 07:23:00,
2013-10-06 03:28:00,63.5,62.0,29.96,East,80,0.0,0.0,95,0.00,CLR,,0.00,WeatherDisplay:10.37,2013-10-06 07:28:00,
2013-10-06 03:33:00,63.5,62.0,29.96,SE,128,2.4,4.6,95,0.00,CLR,,0.00,WeatherDisplay:10.37,2013-10-06 07:33:00,
2013-10-06 03:38:00,63.5,62.0,29.96,ESE,119,0.0,0.0,95,0.00,CLR,,0.00,WeatherDisplay:10.37,2013-10-06 07:38:00,
2013-10-06 03:43:00,63.5,62.0,29.96,ESE,121,0.0,2.3,95,0.00,CLR,,0.00,WeatherDisplay:10.37,2013-10-06 07:43:00,
2013-10-06 03:48:00,63.5,62.0,29.96,ESE,121,0.0,1.2,95,0.00,CLR,,0.00,WeatherDisplay:10.37,2013-10-06 07:48:00,
2013-10-06 03:54:00,63.5,62.0,29.97,ENE,76,0.0,0.0,95,0.00,CLR,,0.00,WeatherDisplay:10.37,2013-10-06 07:54:00,
2013-10-06 03:59:00,63.5,62.0,29.97,ESE,114,0.0,0.0,95,0.00,CLR,,0.00,WeatherDisplay:10.37,2013-10-06 07:59:00,
2013-10-06 04:04:00,63.5,62.0,29.97,SE,137,0.0,0.0,95,0.00,CLR,,0.00,WeatherDisplay:10.37,2013-10-06 08:04:00,
2013-10-06 04:09:00,63.5,62.0,29.97,SE,136,0.0,0.0,95,0.00,CLR,,0.00,WeatherDisplay:10.37,2013-10-06 08:09:00,
2013-10-06 04:14:00,63.5,62.0,29.97,SE,137,0.0,0.0,95,0.00,CLR,,0.00,WeatherDisplay:10.37,2013-10-06 08:14:00,
2013-10-06 04:19:00,63.5,62.0,29.97,SE,137,0.0,0.0,95,0.00,CLR,,0.00,WeatherDisplay:10.37,2013-10-06 08:19:00,
2013-10-06 04:23:00,63.5,62.3,29.97,SE,137,0.0,0.0,96,0.00,CLR,,0.00,WeatherDisplay:10.37,2013-10-06 08:23:00,
2013-10-06 04:29:00,63.5,62.3,29.97,ESE,103,1.1,1.1,96,0.00,CLR,,0.00,WeatherDisplay:10.37,2013-10-06 08:29:00,
2013-10-06 04:33:00,63.5,62.3,29.97,East,83,0.9,1.0,96,0.00,CLR,,0.00,WeatherDisplay:10.37,2013-10-06 08:33:00,
2013-10-06 04:38:00,63.4,62.2,29.97,East,88,0.0,2.3,96,0.00,CLR,,0.00,WeatherDisplay:10.37,2013-10-06 08:38:00,
2013-10-06 04:44:00,63.4,62.2,29.97,East,88,0.0,0.0,96,0.00,CLR,,0.00,WeatherDisplay:10.37,2013-10-06 08:44:00,
2013-10-06 04:48:00,63.4,62.2,29.98,East,88,0.0,0.0,96,0.00,CLR,,0.00,WeatherDisplay:10.37,2013-10-06 08:48:00,
2013-10-06 04:53:00,63.5,62.3,29.98,East,88,0.0,0.0,96,0.00,CLR,,0.00,WeatherDisplay:10.37,2013-10-06 08:53:00,
2013-10-06 04:58:00,63.4,62.2,29.98,East,95,1.3,3.5,96,0.00,CLR,,0.00,WeatherDisplay:10.37,2013-10-06 08:58:00,
2013-10-06 05:03:00,63.4,62.2,29.98,East,96,0.7,4.6,96,0.00,CLR,,0.00,WeatherDisplay:10.37,2013-10-06 09:03:00,
2013-10-06 05:08:00,63.4,62.2,29.98,East,96,0.0,0.0,96,0.00,CLR,,0.00,WeatherDisplay:10.37,2013-10-06 09:08:00,
2013-10-06 05:10:00,63.4,62.2,29.98,East,96,0.0,0.0,96,0.00,CLR,,0.00,WeatherDisplay:10.37,2013-10-06 09:10:00,
2013-10-06 05:15:00,63.4,62.2,29.98,East,96,0.0,0.0,96,0.00,CLR,,0.00,WeatherDisplay:10.37,2013-10-06 09:15:00,
2013-10-06 05:20:00,63.4,62.2,29.98,East,96,0.0,0.0,96,0.00,CLR,,0.00,WeatherDisplay:10.37,2013-10-06 09:20:00,
2013-10-06 05:25:00,63.4,62.2,29.98,East,97,0.0,0.0,96,0.00,CLR,,0.00,WeatherDisplay:10.37,2013-10-06 09:25:00,
2013-10-06 05:30:00,63.4,62.2,29.98,East,88,0.2,3.0,96,0.00,CLR,,0.00,WeatherDisplay:10.37,2013-10-06 09:30:00,
2013-10-06 05:35:00,63.4,62.2,29.98,East,90,0.0,0.0,96,0.00,CLR,,0.00,WeatherDisplay:10.37,2013-10-06 09:35:00,
2013-10-06 05:40:00,63.4,62.2,29.98,East,90,0.0,0.0,96,0.00,CLR,,0.00,WeatherDisplay:10.37,2013-10-06 09:40:00,
2013-10-06 05:45:00,63.4,62.2,29.98,East,85,0.0,0.0,96,0.00,CLR,,0.00,WeatherDisplay:10.37,2013-10-06 09:45:00,
2013-10-06 05:50:00,63.4,62.2,29.98,East,85,0.0,0.0,96,0.00,CLR,,0.00,WeatherDisplay:10.37,2013-10-06 09:50:00,
2013-10-06 05:55:00,63.4,62.2,29.98,East,85,0.0,0.0,96,0.00,CLR,,0.00,WeatherDisplay:10.37,2013-10-06 09:55:00,
2013-10-06 06:00:00,63.4,62.2,29.98,East,86,0.5,2.0,96,0.00,CLR,,0.00,WeatherDisplay:10.37,2013-10-06 10:00:00,
2013-10-06 06:05:00,63.2,62.0,29.98,SSE,155,0.4,2.3,96,0.00,CLR,,0.00,WeatherDisplay:10.37,2013-10-06 10:05:00,
2013-10-06 06:10:00,63.2,62.0,29.98,SSE,155,0.0,0.0,96,0.00,CLR,,0.00,WeatherDisplay:10.37,2013-10-06 10:10:00,
2013-10-06 06:15:00,63.2,62.0,29.98,SSE,155,0.0,0.0,96,0.00,CLR,,0.00,WeatherDisplay:10.37,2013-10-06 10:15:00,
2013-10-06 06:20:00,63.2,62.0,29.98,SSE,155,0.0,0.0,96,0.00,CLR,,0.00,WeatherDisplay:10.37,2013-10-06 10:20:00,
2013-10-06 06:25:00,63.2,62.0,29.98,SSE,155,0.0,1.2,96,0.00,CLR,,0.00,WeatherDisplay:10.37,2013-10-06 10:25:00,
2013-10-06 06:30:00,63.2,62.3,29.98,SSE,155,0.0,0.0,97,0.00,CLR,,0.00,WeatherDisplay:10.37,2013-10-06 10:30:00,
2013-10-06 06:35:00,63.2,62.3,29.98,SSE,155,0.0,0.0,97,0.00,CLR,,0.00,WeatherDisplay:10.37,2013-10-06 10:35:00,
2013-10-06 06:40:00,63.2,62.3,29.98,SSE,155,0.0,0.0,97,0.00,CLR,,0.00,WeatherDisplay:10.37,2013-10-06 10:40:00,
2013-10-06 06:45:00,63.2,62.3,29.99,SSE,157,0.0,0.0,97,0.00,CLR,,0.00,WeatherDisplay:10.37,2013-10-06 10:45:00,
2013-10-06 06:50:00,63.2,62.3,29.99,SSE,157,0.0,0.0,97,0.00,CLR,,0.00,WeatherDisplay:10.37,2013-10-06 10:50:00,
2013-10-06 06:55:00,63.2,62.3,29.99,ESE,104,0.0,0.0,97,0.00,CLR,,0.00,WeatherDisplay:10.37,2013-10-06 10:55:00,
2013-10-06 07:00:00,63.2,62.3,29.99,ENE,68,1.8,3.5,97,0.00,CLR,,0.00,WeatherDisplay:10.37,2013-10-06 11:00:00,
2013-10-06 07:05:00,63.2,62.3,29.99,East,89,0.4,2.0,97,0.00,CLR,,0.00,WeatherDisplay:10.37,2013-10-06 11:05:00,
2013-10-06 07:10:00,63.2,62.3,29.99,SE,130,3.2,5.8,97,0.00,CLR,,0.00,WeatherDisplay:10.37,2013-10-06 11:10:00,
2013-10-06 07:15:00,63.1,62.2,29.99,SE,128,0.0,0.0,97,0.00,CLR,,0.00,WeatherDisplay:10.37,2013-10-06 11:15:00,
2013-10-06 07:20:00,63.1,62.2,29.99,SE,128,0.0,0.0,97,0.00,CLR,,0.00,WeatherDisplay:10.37,2013-10-06 11:20:00,
2013-10-06 07:25:00,63.1,62.2,29.99,SE,128,0.3,1.0,97,0.00,CLR,,0.00,WeatherDisplay:10.37,2013-10-06 11:25:00,
2013-10-06 07:30:00,63.1,62.2,29.99,SE,141,1.5,3.5,97,0.00,CLR,,0.00,WeatherDisplay:10.37,2013-10-06 11:30:00,
2013-10-06 07:35:00,63.1,62.2,29.99,East,96,0.0,0.0,97,0.00,CLR,,0.00,WeatherDisplay:10.37,2013-10-06 11:35:00,
2013-10-06 07:40:00,63.1,62.2,29.99,SE,124,0.0,0.0,97,0.00,CLR,,0.00,WeatherDisplay:10.37,2013-10-06 11:40:00,
2013-10-06 07:45:00,63.2,62.3,29.99,East,88,1.6,5.0,97,0.00,CLR,,0.00,WeatherDisplay:10.37,2013-10-06 11:45:00,
2013-10-06 07:50:00,63.2,62.3,29.99,SE,137,0.3,1.2,97,0.00,CLR,,0.00,WeatherDisplay:10.37,2013-10-06 11:50:00,
2013-10-06 07:55:00,63.2,62.3,29.99,East,79,0.0,0.0,97,0.00,CLR,,0.00,WeatherDisplay:10.37,2013-10-06 11:55:00,
2013-10-06 08:00:00,63.2,62.3,29.99,East,79,0.0,0.0,97,0.00,CLR,,0.00,WeatherDisplay:10.37,2013-10-06 12:00:00,
2013-10-06 08:05:00,63.4,62.5,29.99,East,80,0.0,0.0,97,0.00,CLR,,0.00,WeatherDisplay:10.37,2013-10-06 12:05:00,
2013-10-06 08:10:00,63.4,62.5,30.00,ESE,114,0.0,0.0,97,0.00,CLR,,0.00,WeatherDisplay:10.37,2013-10-06 12:10:00,
2013-10-06 08:15:00,63.4,62.5,30.00,ESE,112,0.0,0.0,97,0.00,CLR,,0.00,WeatherDisplay:10.37,2013-10-06 12:15:00,
2013-10-06 08:20:00,63.4,62.5,30.00,ESE,110,0.0,0.0,97,0.00,CLR,,0.00,WeatherDisplay:10.37,2013-10-06 12:20:00,
2013-10-06 08:25:00,63.4,62.5,30.00,ESE,110,0.0,0.0,97,0.00,CLR,,0.00,WeatherDisplay:10.37,2013-10-06 12:25:00,
2013-10-06 08:30:00,63.5,62.6,30.00,ESE,110,0.0,0.0,97,0.00,CLR,,0.00,WeatherDisplay:10.37,2013-10-06 12:30:00,
2013-10-06 08:35:00,63.5,62.6,30.00,ESE,110,0.0,0.0,97,0.00,CLR,,0.00,WeatherDisplay:10.37,2013-10-06 12:35:00,
2013-10-06 08:40:00,63.5,62.6,30.00,ESE,110,0.0,2.3,97,0.00,CLR,,0.00,WeatherDisplay:10.37,2013-10-06 12:40:00,
2013-10-06 08:45:00,63.5,62.6,30.00,ESE,109,0.0,0.0,97,0.00,CLR,,0.00,WeatherDisplay:10.37,2013-10-06 12:45:00,
2013-10-06 08:50:00,63.7,62.8,30.00,ESE,109,0.0,0.0,97,0.00,CLR,,0.00,WeatherDisplay:10.37,2013-10-06 12:50:00,
2013-10-06 08:55:00,63.7,62.8,30.00,ENE,75,0.0,0.0,97,0.00,CLR,,0.00,WeatherDisplay:10.37,2013-10-06 12:55:00,
2013-10-06 09:00:00,63.7,62.8,30.00,ESE,104,0.0,0.0,97,0.00,CLR,,0.00,WeatherDisplay:10.37,2013-10-06 13:00:00,
2013-10-06 09:05:00,63.9,63.0,30.00,ESE,106,0.0,0.0,97,0.00,CLR,,0.00,WeatherDisplay:10.37,2013-10-06 13:05:00,
2013-10-06 09:10:00,63.9,63.0,30.00,ESE,116,0.0,0.0,97,0.00,CLR,,0.00,WeatherDisplay:10.37,2013-10-06 13:10:00,
2013-10-06 09:15:00,63.9,63.0,30.00,ESE,117,0.9,1.2,97,0.00,CLR,,0.00,WeatherDisplay:10.37,2013-10-06 13:15:00,
2013-10-06 09:20:00,63.9,63.0,30.00,ESE,106,1.7,3.0,97,0.00,CLR,,0.00,WeatherDisplay:10.37,2013-10-06 13:20:00,
2013-10-06 09:25:00,63.9,63.0,30.00,ESE,114,0.0,0.0,97,0.00,CLR,,0.00,WeatherDisplay:10.37,2013-10-06 13:25:00,
2013-10-06 09:30:00,64.0,63.1,30.00,SE,124,1.2,2.3,97,0.00,CLR,,0.00,WeatherDisplay:10.37,2013-10-06 13:30:00,
2013-10-06 09:35:00,64.0,63.4,30.01,East,86,0.0,0.0,98,0.00,CLR,,0.00,WeatherDisplay:10.37,2013-10-06 13:35:00,
2013-10-06 09:40:00,64.0,63.1,30.01,ESE,116,0.0,0.0,97,0.00,CLR,,0.00,WeatherDisplay:10.37,2013-10-06 13:40:00,
2013-10-06 09:45:00,64.0,63.4,30.01,ESE,112,3.0,3.5,98,0.00,CLR,,0.00,WeatherDisplay:10.37,2013-10-06 13:45:00,
2013-10-06 09:50:00,64.0,63.1,30.00,ESE,114,0.0,0.0,97,0.00,CLR,,0.00,WeatherDisplay:10.37,2013-10-06 13:50:00,
2013-10-06 09:55:00,64.0,63.1,30.01,ENE,69,1.0,3.5,97,0.00,CLR,,0.00,WeatherDisplay:10.37,2013-10-06 13:55:00,
2013-10-06 10:00:00,64.0,63.1,30.01,ESE,107,3.0,5.8,97,0.00,CLR,,0.00,WeatherDisplay:10.37,2013-10-06 14:00:00,
2013-10-06 10:05:00,64.2,63.6,30.02,ESE,109,2.2,3.0,98,0.00,CLR,,0.00,WeatherDisplay:10.37,2013-10-06 14:05:00,
2013-10-06 10:10:00,64.0,63.1,30.01,East,89,3.3,5.8,97,0.00,CLR,,0.00,WeatherDisplay:10.37,2013-10-06 14:10:00,
2013-10-06 10:15:00,64.3,63.7,30.01,East,90,0.0,1.2,98,0.00,CLR,,0.00,WeatherDisplay:10.37,2013-10-06 14:15:00,
2013-10-06 10:20:00,64.3,63.7,30.01,ESE,116,0.0,2.3,98,0.00,CLR,,0.00,WeatherDisplay:10.37,2013-10-06 14:20:00,
2013-10-06 10:25:00,64.5,63.6,30.01,ESE,116,0.0,0.0,97,0.00,CLR,,0.00,WeatherDisplay:10.37,2013-10-06 14:25:00,
2013-10-06 10:30:00,64.5,63.6,30.01,East,83,0.0,0.0,97,0.00,CLR,,0.00,WeatherDisplay:10.37,2013-10-06 14:30:00,
2013-10-06 10:35:00,64.3,63.4,30.01,ESE,103,1.9,5.8,97,0.00,CLR,,0.00,WeatherDisplay:10.37,2013-10-06 14:35:00,
2013-10-06 10:40:00,64.3,63.7,30.01,ESE,102,2.6,4.6,98,0.00,CLR,,0.00,WeatherDisplay:10.37,2013-10-06 14:40:00,
2013-10-06 10:45:00,64.7,64.1,30.01,East,88,1.3,2.3,98,0.00,CLR,,0.00,WeatherDisplay:10.37,2013-10-06 14:45:00,
2013-10-06 10:50:00,64.8,64.2,30.01,East,89,0.8,3.5,98,0.00,CLR,,0.00,WeatherDisplay:10.37,2013-10-06 14:50:00,
2013-10-06 10:55:00,64.8,64.2,30.01,ESE,120,0.7,4.6,98,0.00,CLR,,0.00,WeatherDisplay:10.37,2013-10-06 14:55:00,
2013-10-06 11:00:00,64.8,64.2,30.01,East,86,3.0,8.1,98,0.00,CLR,,0.00,WeatherDisplay:10.37,2013-10-06 15:00:00,
2013-10-06 11:06:00,65.0,64.4,30.01,ESE,116,1.5,6.9,98,0.00,CLR,,0.00,WeatherDisplay:10.37,2013-10-06 15:06:00,
2013-10-06 11:11:00,65.0,64.1,30.01,NNE,18,2.8,5.0,97,0.00,CLR,,0.00,WeatherDisplay:10.37,2013-10-06 15:11:00,
2013-10-06 11:16:00,65.2,64.3,30.01,SE,128,0.1,1.2,97,0.00,CLR,,0.00,WeatherDisplay:10.37,2013-10-06 15:16:00,
2013-10-06 11:21:00,65.3,64.4,30.00,East,86,2.5,5.0,97,0.00,CLR,,0.00,WeatherDisplay:10.37,2013-10-06 15:21:00,
2013-10-06 11:26:00,65.2,64.3,30.00,East,79,2.0,3.5,97,0.00,CLR,,0.00,WeatherDisplay:10.37,2013-10-06 15:26:00,
2013-10-06 11:31:00,65.3,64.4,30.00,ESE,112,0.0,0.0,97,0.00,CLR,,0.00,WeatherDisplay:10.37,2013-10-06 15:31:00,
2013-10-06 11:36:00,65.3,64.4,30.00,ESE,103,0.0,0.0,97,0.00,CLR,,0.00,WeatherDisplay:10.37,2013-10-06 15:36:00,
2013-10-06 11:41:00,65.5,64.6,30.00,ESE,103,0.0,0.0,97,0.00,CLR,,0.00,WeatherDisplay:10.37,2013-10-06 15:41:00,
2013-10-06 11:46:00,65.6,64.7,30.00,East,86,2.7,5.8,97,0.00,CLR,,0.00,WeatherDisplay:10.37,2013-10-06 15:46:00,
2013-10-06 11:51:00,65.5,64.6,30.00,SE,137,4.3,6.9,97,0.00,CLR,,0.00,WeatherDisplay:10.37,2013-10-06 15:51:00,
2013-10-06 11:56:00,65.5,64.6,30.00,East,88,3.6,8.0,97,0.00,CLR,,0.00,WeatherDisplay:10.37,2013-10-06 15:56:00,
2013-10-06 12:01:00,65.6,64.7,30.00,East,95,4.3,10.4,97,0.00,CLR,,0.00,WeatherDisplay:10.37,2013-10-06 16:01:00,
2013-10-06 12:06:00,65.6,64.4,30.00,SE,127,0.3,2.3,96,0.00,CLR,,0.00,WeatherDisplay:10.37,2013-10-06 16:06:00,
2013-10-06 12:11:00,65.6,64.4,30.00,ESE,121,1.3,3.5,96,0.00,CLR,,0.00,WeatherDisplay:10.37,2013-10-06 16:11:00,
2013-10-06 12:16:00,65.6,64.4,30.00,ESE,116,0.0,0.0,96,0.00,CLR,,0.00,WeatherDisplay:10.37,2013-10-06 16:16:00,
2013-10-06 12:21:00,65.6,64.4,30.00,ESE,116,0.0,0.0,96,0.00,CLR,,0.00,WeatherDisplay:10.37,2013-10-06 16:21:00,
2013-10-06 12:26:00,65.8,64.6,30.00,ESE,117,0.0,0.0,96,0.00,CLR,,0.00,WeatherDisplay:10.37,2013-10-06 16:26:00,
2013-10-06 12:31:00,65.6,64.4,30.00,SE,141,5.0,8.1,96,0.00,CLR,,0.00,WeatherDisplay:10.37,2013-10-06 16:31:00,
2013-10-06 12:36:00,65.8,64.6,30.00,SE,143,4.0,10.4,96,0.00,CLR,,0.00,WeatherDisplay:10.37,2013-10-06 16:36:00,
2013-10-06 12:41:00,65.6,64.4,30.00,SE,137,4.9,6.9,96,0.00,CLR,,0.00,WeatherDisplay:10.37,2013-10-06 16:41:00,
2013-10-06 12:46:00,65.6,64.4,30.00,SSE,150,0.0,1.2,96,0.00,CLR,,0.00,WeatherDisplay:10.37,2013-10-06 16:46:00,
2013-10-06 12:51:00,65.8,64.6,30.00,SSE,150,0.0,0.0,96,0.00,CLR,,0.00,WeatherDisplay:10.37,2013-10-06 16:51:00,
2013-10-06 12:56:00,66.0,64.8,29.99,SE,133,2.7,6.9,96,0.00,CLR,,0.00,WeatherDisplay:10.37,2013-10-06 16:56:00,
2013-10-06 13:01:00,66.0,64.8,29.99,East,90,3.9,8.0,96,0.00,CLR,,0.00,WeatherDisplay:10.37,2013-10-06 17:01:00,
2013-10-06 13:06:00,66.1,64.9,29.99,ESE,114,0.6,3.5,96,0.00,CLR,,0.00,WeatherDisplay:10.37,2013-10-06 17:06:00,
2013-10-06 13:11:00,66.0,64.8,29.99,SE,136,0.6,3.5,96,0.00,CLR,,0.00,WeatherDisplay:10.37,2013-10-06 17:11:00,
2013-10-06 13:16:00,66.1,64.9,29.99,East,99,1.0,2.3,96,0.00,CLR,,0.00,WeatherDisplay:10.37,2013-10-06 17:16:00,
2013-10-06 13:21:00,66.0,64.8,29.99,ESE,113,3.2,5.8,96,0.00,CLR,,0.00,WeatherDisplay:10.37,2013-10-06 17:21:00,
2013-10-06 13:26:00,66.1,64.9,29.99,SE,134,1.2,3.5,96,0.00,CLR,,0.00,WeatherDisplay:10.37,2013-10-06 17:26:00,
2013-10-06 13:31:00,66.1,64.6,29.99,ESE,103,2.5,8.1,95,0.00,CLR,,0.00,WeatherDisplay:10.37,2013-10-06 17:31:00,
2013-10-06 13:36:00,66.0,64.8,29.98,East,90,1.5,4.6,96,0.00,CLR,,0.00,WeatherDisplay:10.37,2013-10-06 17:36:00,
2013-10-06 13:41:00,66.0,64.8,29.99,East,90,0.0,0.0,96,0.00,CLR,,0.00,WeatherDisplay:10.37,2013-10-06 17:41:00,
2013-10-06 13:46:00,65.8,64.6,29.98,ESE,116,0.9,3.5,96,0.00,CLR,,0.00,WeatherDisplay:10.37,2013-10-06 17:46:00,
2013-10-06 13:51:00,65.8,64.6,29.98,SE,143,0.3,2.3,96,0.00,CLR,,0.00,WeatherDisplay:10.37,2013-10-06 17:51:00,
2013-10-06 13:56:00,65.8,64.6,29.98,SE,133,0.0,0.0,96,0.00,CLR,,0.00,WeatherDisplay:10.37,2013-10-06 17:56:00,
2013-10-06 14:01:00,66.0,64.8,29.98,SE,136,0.0,0.0,96,0.00,CLR,,0.00,WeatherDisplay:10.37,2013-10-06 18:01:00,
2013-10-06 14:06:00,66.0,64.8,29.98,East,79,3.3,5.8,96,0.00,CLR,,0.00,WeatherDisplay:10.37,2013-10-06 18:06:00,
2013-10-06 14:11:00,66.1,64.9,29.97,East,86,0.0,0.0,96,0.00,CLR,,0.00,WeatherDisplay:10.37,2013-10-06 18:11:00,
2013-10-06 14:16:00,66.1,64.9,29.97,SE,134,2.9,4.6,96,0.00,CLR,,0.00,WeatherDisplay:10.37,2013-10-06 18:16:00,
2013-10-06 14:21:00,66.1,64.9,29.97,SSE,150,1.1,3.5,96,0.00,CLR,,0.00,WeatherDisplay:10.37,2013-10-06 18:21:00,
2013-10-06 14:26:00,66.1,64.9,29.97,East,83,1.6,3.5,96,0.00,CLR,,0.00,WeatherDisplay:10.37,2013-10-06 18:26:00,
2013-10-06 14:31:00,66.1,64.9,29.97,East,92,2.3,5.0,96,0.00,CLR,,0.00,WeatherDisplay:10.37,2013-10-06 18:31:00,
2013-10-06 14:36:00,66.3,65.1,29.97,East,89,1.8,3.5,96,0.00,CLR,,0.00,WeatherDisplay:10.37,2013-10-06 18:36:00,
2013-10-06 14:41:00,66.3,64.8,29.97,East,95,4.0,6.9,95,0.00,CLR,,0.00,WeatherDisplay:10.37,2013-10-06 18:41:00,
2013-10-06 14:46:00,66.3,65.1,29.97,East,89,2.5,7.0,96,0.00,CLR,,0.00,WeatherDisplay:10.37,2013-10-06 18:46:00,
2013-10-06 14:51:00,66.4,64.9,29.97,ESE,114,3.0,5.8,95,0.00,CLR,,0.00,WeatherDisplay:10.37,2013-10-06 18:51:00,
2013-10-06 14:56:00,66.6,65.1,29.97,SE,134,2.4,4.6,95,0.00,CLR,,0.00,WeatherDisplay:10.37,2013-10-06 18:56:00,
2013-10-06 15:01:00,66.6,65.1,29.97,SSE,152,0.0,0.0,95,0.00,CLR,,0.00,WeatherDisplay:10.37,2013-10-06 19:01:00,
2013-10-06 15:06:00,66.8,65.3,29.97,NNE,20,1.0,2.3,95,0.00,CLR,,0.00,WeatherDisplay:10.37,2013-10-06 19:06:00,
2013-10-06 15:11:00,66.8,65.3,29.97,ENE,76,0.6,2.3,95,0.00,CLR,,0.00,WeatherDisplay:10.37,2013-10-06 19:11:00,
2013-10-06 15:16:00,66.8,65.3,29.97,East,80,1.1,3.5,95,0.00,CLR,,0.00,WeatherDisplay:10.37,2013-10-06 19:16:00,
2013-10-06 15:21:00,66.8,65.3,29.97,East,86,0.6,5.8,95,0.00,CLR,,0.00,WeatherDisplay:10.37,2013-10-06 19:21:00,
2013-10-06 15:26:00,66.8,65.3,29.97,ESE,109,1.8,3.5,95,0.00,CLR,,0.00,WeatherDisplay:10.37,2013-10-06 19:26:00,
2013-10-06 15:31:00,66.8,65.0,29.97,SE,138,2.3,4.6,94,0.00,CLR,,0.00,WeatherDisplay:10.37,2013-10-06 19:31:00,
2013-10-06 15:36:00,66.8,65.0,29.97,East,95,1.7,3.5,94,0.00,CLR,,0.00,WeatherDisplay:10.37,2013-10-06 19:36:00,
2013-10-06 15:41:00,66.8,65.0,29.97,East,79,5.7,8.1,94,0.00,CLR,,0.00,WeatherDisplay:10.37,2013-10-06 19:41:00,
2013-10-06 15:46:00,66.8,65.3,29.97,ENE,76,2.7,5.8,95,0.00,CLR,,0.00,WeatherDisplay:10.37,2013-10-06 19:46:00,
2013-10-06 15:51:00,66.8,65.3,29.97,ESE,114,0.5,1.2,95,0.00,CLR,,0.00,WeatherDisplay:10.37,2013-10-06 19:51:00,
2013-10-06 15:56:00,66.8,65.3,29.97,SSE,151,5.8,8.1,95,0.00,CLR,,0.00,WeatherDisplay:10.37,2013-10-06 19:56:00,
2013-10-06 16:01:00,66.8,65.3,29.97,ESE,123,1.0,4.6,95,0.00,CLR,,0.00,WeatherDisplay:10.37,2013-10-06 20:01:00,
2013-10-06 16:06:00,66.8,65.3,29.97,SE,145,0.9,2.3,95,0.00,CLR,,0.00,WeatherDisplay:10.37,2013-10-06 20:06:00,
2013-10-06 16:11:00,66.8,65.3,29.97,East,93,1.0,1.2,95,0.00,CLR,,0.00,WeatherDisplay:10.37,2013-10-06 20:11:00,
2013-10-06 16:16:00,66.6,65.1,29.96,SSE,165,2.0,5.8,95,0.00,CLR,,0.00,WeatherDisplay:10.37,2013-10-06 20:16:00,
2013-10-06 16:21:00,66.6,65.1,29.96,ESE,112,0.6,2.3,95,0.00,CLR,,0.00,WeatherDisplay:10.37,2013-10-06 20:21:00,
2013-10-06 16:26:00,66.6,65.1,29.96,East,92,4.3,6.9,95,0.00,CLR,,0.00,WeatherDisplay:10.37,2013-10-06 20:26:00,
2013-10-06 16:31:00,66.8,65.3,29.96,East,93,2.6,4.6,95,0.00,CLR,,0.00,WeatherDisplay:10.37,2013-10-06 20:31:00,
2013-10-06 16:36:00,66.8,65.3,29.96,ESE,112,0.0,1.2,95,0.00,CLR,,0.00,WeatherDisplay:10.37,2013-10-06 20:36:00,
2013-10-06 16:41:00,66.8,65.3,29.96,ENE,65,0.0,0.0,95,0.00,CLR,,0.00,WeatherDisplay:10.37,2013-10-06 20:41:00,
2013-10-06 16:46:00,66.8,65.3,29.96,East,89,2.6,6.0,95,0.00,CLR,,0.00,WeatherDisplay:10.37,2013-10-06 20:46:00,
2013-10-06 16:51:00,66.8,65.3,29.95,East,99,2.2,3.5,95,0.00,CLR,,0.00,WeatherDisplay:10.37,2013-10-06 20:51:00,
2013-10-06 16:56:00,66.8,65.3,29.95,SE,138,2.3,7.0,95,0.00,CLR,,0.00,WeatherDisplay:10.37,2013-10-06 20:56:00,
2013-10-06 17:01:00,66.8,65.3,29.95,ESE,104,0.0,1.2,95,0.00,CLR,,0.00,WeatherDisplay:10.37,2013-10-06 21:01:00,
2013-10-06 17:06:00,66.8,65.3,29.95,East,83,1.5,4.6,95,0.00,CLR,,0.00,WeatherDisplay:10.37,2013-10-06 21:06:00,
2013-10-06 17:11:00,66.6,65.1,29.95,East,93,6.3,8.1,95,0.00,CLR,,0.00,WeatherDisplay:10.37,2013-10-06 21:11:00,
2013-10-06 17:16:00,66.6,65.1,29.95,North,6,1.0,5.0,95,0.00,CLR,,0.00,WeatherDisplay:10.37,2013-10-06 21:16:00,
2013-10-06 17:21:00,66.6,65.1,29.95,East,86,0.5,2.3,95,0.00,CLR,,0.00,WeatherDisplay:10.37,2013-10-06 21:21:00,
2013-10-06 17:26:00,66.4,64.9,29.96,ENE,78,0.8,3.5,95,0.00,CLR,,0.00,WeatherDisplay:10.37,2013-10-06 21:26:00,
2013-10-06 17:31:00,66.4,64.9,29.95,East,82,2.5,7.0,95,0.00,CLR,,0.00,WeatherDisplay:10.37,2013-10-06 21:31:00,
2013-10-06 17:36:00,66.3,64.8,29.95,East,88,2.7,4.6,95,0.00,CLR,,0.00,WeatherDisplay:10.37,2013-10-06 21:36:00,
2013-10-06 17:41:00,66.3,64.8,29.95,NNE,17,1.6,3.5,95,0.00,CLR,,0.00,WeatherDisplay:10.37,2013-10-06 21:41:00,
2013-10-06 17:46:00,66.3,64.8,29.95,NE,40,2.0,5.8,95,0.00,CLR,,0.00,WeatherDisplay:10.37,2013-10-06 21:46:00,
2013-10-06 17:51:00,66.1,64.6,29.95,ENE,76,7.7,10.4,95,0.00,CLR,,0.00,WeatherDisplay:10.37,2013-10-06 21:51:00,
2013-10-06 17:56:00,66.1,64.9,29.95,East,86,3.7,5.8,96,0.00,CLR,,0.00,WeatherDisplay:10.37,2013-10-06 21:56:00,
2013-10-06 18:01:00,66.1,64.9,29.95,NE,52,2.9,8.0,96,0.00,CLR,,0.00,WeatherDisplay:10.37,2013-10-06 22:01:00,
2013-10-06 18:06:00,66.1,64.9,29.95,ENE,73,4.7,6.9,96,0.00,CLR,,0.00,WeatherDisplay:10.37,2013-10-06 22:06:00,
2013-10-06 18:11:00,66.1,64.9,29.95,ENE,73,6.1,11.5,96,0.00,CLR,,0.00,WeatherDisplay:10.37,2013-10-06 22:11:00,
2013-10-06 18:16:00,66.1,64.9,29.95,ESE,109,0.0,2.3,96,0.00,CLR,,0.00,WeatherDisplay:10.37,2013-10-06 22:16:00,
2013-10-06 18:21:00,66.1,64.9,29.95,East,93,3.5,5.8,96,0.00,CLR,,0.00,WeatherDisplay:10.37,2013-10-06 22:21:00,
2013-10-06 18:26:00,66.3,65.1,29.95,NNE,27,4.9,8.1,96,0.00,CLR,,0.00,WeatherDisplay:10.37,2013-10-06 22:26:00,
2013-10-06 18:31:00,66.3,65.1,29.95,East,92,4.0,5.8,96,0.00,CLR,,0.00,WeatherDisplay:10.37,2013-10-06 22:31:00,
2013-10-06 18:36:00,66.3,65.1,29.95,NE,38,6.8,12.7,96,0.00,CLR,,0.00,WeatherDisplay:10.37,2013-10-06 22:36:00,
2013-10-06 18:41:00,66.3,65.1,29.95,NE,37,2.2,3.5,96,0.00,CLR,,0.00,WeatherDisplay:10.37,2013-10-06 22:41:00,
2013-10-06 18:46:00,66.3,65.1,29.95,ESE,103,3.5,5.8,96,0.00,CLR,,0.00,WeatherDisplay:10.37,2013-10-06 22:46:00,
2013-10-06 18:51:00,66.3,65.1,29.95,SSE,165,4.9,11.5,96,0.00,CLR,,0.00,WeatherDisplay:10.37,2013-10-06 22:51:00,
2013-10-06 18:56:00,66.3,65.1,29.95,East,86,6.2,17.0,96,0.00,CLR,,0.00,WeatherDisplay:10.37,2013-10-06 22:56:00,
2013-10-06 19:01:00,66.4,65.2,29.95,ENE,73,0.4,8.1,96,0.00,CLR,,0.00,WeatherDisplay:10.37,2013-10-06 23:01:00,
2013-10-06 19:06:00,66.4,65.2,29.95,SE,145,2.1,5.8,96,0.00,CLR,,0.00,WeatherDisplay:10.37,2013-10-06 23:06:00,
2013-10-06 19:11:00,66.4,65.2,29.95,ENE,78,4.6,8.1,96,0.00,CLR,,0.00,WeatherDisplay:10.37,2013-10-06 23:11:00,
2013-10-06 19:16:00,66.4,65.2,29.95,ESE,116,6.4,10.4,96,0.00,CLR,,0.00,WeatherDisplay:10.37,2013-10-06 23:16:00,
2013-10-06 19:21:00,66.4,65.2,29.95,East,89,5.4,6.9,96,0.00,CLR,,0.00,WeatherDisplay:10.37,2013-10-06 23:21:00,
2013-10-06 19:26:00,66.4,65.2,29.95,ESE,116,2.3,3.5,96,0.00,CLR,,0.00,WeatherDisplay:10.37,2013-10-06 23:26:00,
2013-10-06 19:31:00,66.4,65.2,29.95,East,88,3.9,8.1,96,0.00,CLR,,0.00,WeatherDisplay:10.37,2013-10-06 23:31:00,
2013-10-06 19:36:00,66.4,65.2,29.96,ESE,116,2.2,3.5,96,0.00,CLR,,0.00,WeatherDisplay:10.37,2013-10-06 23:36:00,
2013-10-06 19:41:00,66.4,65.2,29.96,SE,134,2.3,6.9,96,0.00,CLR,,0.00,WeatherDisplay:10.37,2013-10-06 23:41:00,
2013-10-06 19:46:00,66.6,65.4,29.96,ESE,119,0.0,0.0,96,0.00,CLR,,0.00,WeatherDisplay:10.37,2013-10-06 23:46:00,
2013-10-06 19:51:00,66.6,65.4,29.96,SE,130,4.4,8.1,96,0.00,CLR,,0.00,WeatherDisplay:10.37,2013-10-06 23:51:00,
2013-10-06 19:56:00,66.6,65.4,29.96,East,86,1.9,4.6,96,0.00,CLR,,0.00,WeatherDisplay:10.37,2013-10-06 23:56:00,
2013-10-06 20:01:00,66.6,65.4,29.96,ESE,119,2.3,4.6,96,0.00,CLR,,0.01,WeatherDisplay:10.37,2013-10-07 00:01:00,
2013-10-06 20:06:00,66.6,65.4,29.96,East,99,1.8,3.5,96,0.06,RA,,0.07,WeatherDisplay:10.37,2013-10-07 00:06:00,
2013-10-06 20:11:00,66.4,65.2,29.96,East,85,1.9,3.5,96,0.11,RA,,0.11,WeatherDisplay:10.37,2013-10-07 00:11:00,
2013-10-06 20:16:00,66.4,65.2,29.96,SE,133,0.7,5.8,96,0.11,RA,,0.11,WeatherDisplay:10.37,2013-10-07 00:16:00,
2013-10-06 20:21:00,66.4,65.2,29.96,East,90,2.2,5.8,96,0.11,,,0.11,WeatherDisplay:10.37,2013-10-07 00:21:00,
2013-10-06 20:26:00,66.4,65.2,29.95,East,86,2.8,5.8,96,0.11,CLR,,0.11,WeatherDisplay:10.37,2013-10-07 00:26:00,
2013-10-06 20:31:00,66.4,65.2,29.95,ENE,73,7.2,13.8,96,0.11,CLR,,0.11,WeatherDisplay:10.37,2013-10-07 00:31:00,
2013-10-06 20:36:00,66.4,65.2,29.95,NNE,30,2.3,4.6,96,0.11,CLR,,0.11,WeatherDisplay:10.37,2013-10-07 00:36:00,
2013-10-06 20:41:00,66.4,65.2,29.95,NE,35,1.9,5.8,96,0.11,CLR,,0.11,WeatherDisplay:10.37,2013-10-07 00:41:00,
2013-10-06 20:46:00,66.4,65.2,29.95,NE,56,0.1,1.2,96,0.11,CLR,,0.11,WeatherDisplay:10.37,2013-10-07 00:46:00,
2013-10-06 20:51:00,66.4,65.2,29.95,ENE,69,1.5,3.5,96,0.11,CLR,,0.11,WeatherDisplay:10.37,2013-10-07 00:51:00,
2013-10-06 20:56:00,66.4,65.2,29.95,ENE,58,2.3,4.6,96,0.11,CLR,,0.11,WeatherDisplay:10.37,2013-10-07 00:56:00,
2013-10-06 21:01:00,66.6,65.4,29.95,NW,311,0.3,2.3,96,0.11,CLR,,0.11,WeatherDisplay:10.37,2013-10-07 01:01:00,
2013-10-06 21:06:00,66.6,65.4,29.95,East,89,0.5,2.3,96,0.05,CLR,,0.11,WeatherDisplay:10.37,2013-10-07 01:06:00,
2013-10-06 21:11:00,66.6,65.4,29.95,ESE,102,1.0,3.5,96,0.00,CLR,,0.11,WeatherDisplay:10.37,2013-10-07 01:11:00,
2013-10-06 21:16:00,66.6,65.4,29.95,SE,126,1.2,2.3,96,0.00,CLR,,0.11,WeatherDisplay:10.37,2013-10-07 01:16:00,
2013-10-06 21:21:00,66.6,65.4,29.95,SE,124,4.0,7.0,96,0.00,CLR,,0.11,WeatherDisplay:10.37,2013-10-07 01:21:00,
2013-10-06 21:26:00,66.6,65.4,29.95,ESE,109,0.4,2.3,96,0.00,CLR,,0.11,WeatherDisplay:10.37,2013-10-07 01:26:00,
2013-10-06 21:31:00,66.4,65.2,29.95,SSE,157,0.2,1.2,96,0.00,CLR,,0.11,WeatherDisplay:10.37,2013-10-07 01:31:00,
2013-10-06 21:36:00,66.6,65.4,29.95,SSE,160,1.2,3.5,96,0.00,CLR,,0.11,WeatherDisplay:10.37,2013-10-07 01:36:00,
2013-10-06 21:41:00,66.6,65.4,29.95,SE,145,4.4,6.9,96,0.00,CLR,,0.11,WeatherDisplay:10.37,2013-10-07 01:41:00,
2013-10-06 21:46:00,66.6,65.4,29.95,South,185,0.5,7.0,96,0.00,CLR,,0.11,WeatherDisplay:10.37,2013-10-07 01:46:00,
2013-10-06 21:51:00,66.6,65.4,29.94,ENE,75,2.9,5.8,96,0.00,CLR,,0.11,WeatherDisplay:10.37,2013-10-07 01:51:00,
2013-10-06 21:56:00,66.6,65.4,29.95,SE,131,2.9,4.6,96,0.00,CLR,,0.11,WeatherDisplay:10.37,2013-10-07 01:56:00,
2013-10-06 22:01:00,66.6,65.4,29.94,ESE,121,6.8,17.3,96,0.00,CLR,,0.12,WeatherDisplay:10.37,2013-10-07 02:01:00,
2013-10-06 22:06:00,66.6,65.4,29.94,ESE,121,5.5,10.4,96,0.01,RA,,0.12,WeatherDisplay:10.37,2013-10-07 02:06:00,
2013-10-06 22:11:00,66.6,65.4,29.94,ESE,117,2.3,4.6,96,0.01,RA,,0.12,WeatherDisplay:10.37,2013-10-07 02:11:00,
2013-10-06 22:16:00,66.8,65.6,29.94,SE,127,3.8,10.4,96,0.01,CLR,,0.12,WeatherDisplay:10.37,2013-10-07 02:16:00,
2013-10-06 22:21:00,66.6,65.4,29.94,SSE,167,1.4,5.0,96,0.01,CLR,,0.12,WeatherDisplay:10.37,2013-10-07 02:21:00,
2013-10-06 22:26:00,66.6,65.4,29.94,SE,140,4.7,6.9,96,0.01,CLR,,0.12,WeatherDisplay:10.37,2013-10-07 02:26:00,
2013-10-06 22:31:00,66.8,65.6,29.94,SE,138,4.4,11.5,96,0.01,CLR,,0.12,WeatherDisplay:10.37,2013-10-07 02:31:00,
2013-10-06 22:36:00,66.8,65.6,29.94,SSE,162,1.6,4.6,96,0.01,CLR,,0.12,WeatherDisplay:10.37,2013-10-07 02:36:00,
2013-10-06 22:41:00,66.8,65.6,29.94,SE,138,2.4,5.0,96,0.01,CLR,,0.12,WeatherDisplay:10.37,2013-10-07 02:41:00,
2013-10-06 22:46:00,66.8,65.6,29.94,SE,131,3.3,5.8,96,0.01,CLR,,0.12,WeatherDisplay:10.37,2013-10-07 02:46:00,
2013-10-06 22:51:00,66.8,65.6,29.94,SE,137,3.3,5.8,96,0.01,CLR,,0.12,WeatherDisplay:10.37,2013-10-07 02:51:00,
2013-10-06 22:56:00,66.8,65.6,29.94,SSE,157,2.0,5.0,96,0.01,CLR,,0.12,WeatherDisplay:10.37,2013-10-07 02:56:00,
2013-10-06 23:01:00,66.8,65.6,29.94,SE,144,1.4,4.6,96,0.01,CLR,,0.12,WeatherDisplay:10.37,2013-10-07 03:01:00,
2013-10-06 23:06:00,66.8,65.6,29.94,ESE,110,4.3,6.0,96,0.00,CLR,,0.12,WeatherDisplay:10.37,2013-10-07 03:06:00,
2013-10-06 23:11:00,66.8,65.6,29.94,ESE,120,3.6,5.0,96,0.00,CLR,,0.12,WeatherDisplay:10.37,2013-10-07 03:11:00,
2013-10-06 23:16:00,66.6,65.1,29.94,SE,134,2.7,4.6,95,0.00,CLR,,0.12,WeatherDisplay:10.37,2013-10-07 03:16:00,
2013-10-06 23:21:00,66.6,65.1,29.94,SE,143,0.0,0.0,95,0.00,CLR,,0.12,WeatherDisplay:10.37,2013-10-07 03:21:00,
2013-10-06 23:26:00,66.6,65.1,29.94,SSE,160,0.0,0.0,95,0.00,CLR,,0.12,WeatherDisplay:10.37,2013-10-07 03:26:00,
2013-10-06 23:31:00,66.4,64.9,29.94,SE,133,0.4,2.3,95,0.00,CLR,,0.12,WeatherDisplay:10.37,2013-10-07 03:31:00,
2013-10-06 23:36:00,66.4,64.9,29.94,SE,144,6.0,8.1,95,0.00,CLR,,0.12,WeatherDisplay:10.37,2013-10-07 03:36:00,
2013-10-06 23:41:00,66.4,64.9,29.93,SSE,147,3.5,5.8,95,0.00,CLR,,0.12,WeatherDisplay:10.37,2013-10-07 03:41:00,
2013-10-06 23:46:00,66.4,64.9,29.93,SE,143,2.9,4.6,95,0.00,CLR,,0.12,WeatherDisplay:10.37,2013-10-07 03:46:00,
2013-10-06 23:51:00,66.3,64.8,29.93,SE,126,2.3,4.6,95,0.00,CLR,,0.12,WeatherDisplay:10.37,2013-10-07 03:51:00,
2013-10-06 23:56:00,66.3,64.5,29.93,SE,137,2.4,5.8,94,0.00,CLR,,0.12,WeatherDisplay:10.37,2013-10-07 03:56:00,